Location: Camp Crooked Creek
(37.9149°N, 85.6607°W)
Time: 05:51:58
(UTC-04:00)

Lacrosse 4 - Visible Passes

Search period start: 31 October 2014 00:00
Search period end: 09 November 2014 23:00
Orbit: 673 x 680 km, 68.0° (Epoch: 25 February)

Date Brightness Start Highest point End Pass type
(mag) Time Alt. Az. Time Alt. Az. Time Alt. Az.
31 Oct 5.1 20:41:40 10° W 20:42:58 11° WSW 20:44:15 10° WSW visible
01 Nov 3.5 19:33:54 10° NW 19:38:17 36° WSW 19:42:38 10° S visible
02 Nov 5.3 19:11:54 10° W 19:13:22 11° WSW 19:14:50 10° WSW visible
03 Nov 3.6 18:04:16 10° NW 18:08:41 37° WSW 18:13:03 10° S visible
04 Nov 5.4 18:42:08 10° W 18:43:46 12° WSW 18:45:24 10° WSW visible
06 Nov 4.7 06:13:19 10° SSE 06:16:52 21° ESE 06:20:26 10° ENE visible
06 Nov 5.5 18:12:23 10° W 18:14:10 12° WSW 18:15:57 10° SW visible
08 Nov 4.5 05:43:46 10° SSE 05:47:16 21° ESE 05:50:46 10° ENE visible
09 Nov 2.2 06:17:47 10° SSW 06:22:30 65° ESE 06:27:16 10° NNE visible
